This is the latest recevied weather packets stored in our database for station/object W7TTE. If no packets are shown the sender has not sent any weather packets the latest 1 day(s).
| Time | Temp. | Humidity | Pressure | Rain* | Wind** | Luminosity | Snow |
|---|---|---|---|---|---|---|---|
| 1778034549 | 22.22° C | 29% | 1013.3 hPa | 0 mm | 2.24 m/s, 172° | 0 W/m² | - |
| 1778034247 | 22.22° C | 29% | 1013.1 hPa | 0 mm | 0.89 m/s, 179° | 1 W/m² | - |
| 1778033944 | 22.78° C | 28% | 1013 hPa | 0 mm | 1.79 m/s, 221° | 2 W/m² | - |
| 1778033641 | 22.78° C | 29% | 1012.9 hPa | 0 mm | 1.79 m/s, 170° | 4 W/m² | - |
| 1778033338 | 22.78° C | 29% | 1012.9 hPa | 0 mm | 2.68 m/s, 219° | 6 W/m² | - |
| 1778033036 | 22.78° C | 28% | 1013 hPa | 0 mm | 1.79 m/s, 218° | 9 W/m² | - |
| 1778032733 | 22.78° C | 28% | 1012.6 hPa | 0 mm | 1.79 m/s, 211° | 12 W/m² | - |
| 1778032431 | 22.78° C | 28% | 1012.6 hPa | 0 mm | 1.34 m/s, 202° | 15 W/m² | - |
| 1778032127 | 23.33° C | 27% | 1012.6 hPa | 0 mm | 2.24 m/s, 187° | 18 W/m² | - |
| 1778031824 | 23.33° C | 28% | 1012.5 hPa | 0 mm | 1.79 m/s, 171° | 21 W/m² | - |
| 1778031520 | 23.33° C | 27% | 1012.7 hPa | 0 mm | 3.13 m/s, 178° | 23 W/m² | - |
| 1778031218 | 23.89° C | 26% | 1012.7 hPa | 0 mm | 2.68 m/s, 167° | 36 W/m² | - |
| 1778030914 | 23.89° C | 26% | 1012.6 hPa | 0 mm | 2.24 m/s, 209° | 41 W/m² | - |
| 1778030612 | 23.89° C | 27% | 1012.6 hPa | 0 mm | 1.79 m/s, 197° | 44 W/m² | - |
| 1778030309 | 23.89° C | 27% | 1012.5 hPa | 0 mm | 1.79 m/s, 201° | 50 W/m² | - |
| 1778030005 | 24.44° C | 27% | 1012.4 hPa | 0 mm | 1.79 m/s, 234° | 52 W/m² | - |
| 1778029703 | 24.44° C | 25% | 1012.4 hPa | 0 mm | 1.79 m/s, 203° | 59 W/m² | - |
| 1778029400 | 24.44° C | 25% | 1012.5 hPa | 0 mm | 3.58 m/s, 142° | 63 W/m² | - |
| 1778029097 | 24.44° C | 26% | 1012.2 hPa | 0 mm | 1.34 m/s, 195° | 75 W/m² | - |
| 1778028794 | 24.44° C | 25% | 1012.3 hPa | 0 mm | 1.79 m/s, 215° | 75 W/m² | - |
| 1778028490 | 24.44° C | 25% | 1012.4 hPa | 0 mm | 1.79 m/s, 142° | 89 W/m² | - |
| 1778028188 | 24.44° C | 25% | 1012.1 hPa | 0 mm | 3.58 m/s, 215° | 102 W/m² | - |
| 1778027883 | 24.44° C | 25% | 1012 hPa | 0 mm | 2.68 m/s, 132° | 53 W/m² | - |
| 1778027580 | 24.44° C | 26% | 1012.1 hPa | 0 mm | 2.24 m/s, 183° | 138 W/m² | - |
| 1778027276 | 24.44° C | 25% | 1012.2 hPa | 0 mm | 3.58 m/s, 171° | 155 W/m² | - |
* Rain latest hour (hover to see other rain measurements)
** Current wind speed in m/s (hover to see current wind gust speed)